Temp
16 15 13 13 12 11 11 10 10 10 10 10 10 10 10 10 10 10 11 10 9 9
14 13 13 12 10 10 9 9 9 10 10 10 10 10 10 10 9 9 9 9 9 9
12 12 11 11 10 10 9 9 9 9 9 9 9 9 9 8 8 8 7 8 7 8
11 10 10 10 9 9 9 8 8 8 8 8 8 7 7 7 6 7 7 7 7 7
9 9 8 8 8 8 8 7 8 8 8 7 7 6 6 5 6 6 6 6 6 6
9 9 8 8 7 7 7 7 7 7 7 6 6 6 6 6 6 5 5 5 6 6
9 9 8 8 8 7 7 7 7 6 6 6 6 5 5 5 5 5 5 5 5 4
9 9 8 8 8 7 7 7 7 6 5 6 5 5 5 5 5 4 4 3 3 3
8 8 8 8 7 7 7 6 6 5 5 5 5 5 5 5 4 4 4 3 3 3
9 8 8 7 7 7 6 6 6 6 6 5 5 5 5 5 4 4 4 3 2 2
8 8 8 8 8 8 7 6 6 6 6 5 5 5 5 4 4 3 3 3 2 2
9 8 8 7 7 6 6 5 6 6 5 5 5 5 5 4 3 3 2 2 2 2
9 9 8 7 7 7 7 6 6 5 5 5 5 5 4 4 3 2 2 1 1 1
10 8 8 8 7 6 6 6 6 4 4 4 5 4 4 4 4 3 1 1 -0 -0
Height
753 756 757 759 759 760 762 766 769 769 774 777 780 781 786 792 793 797 798 798 809 811
751 753 754 757 760 759 763 765 769 772 773 774 780 783 783 785 787 793 795 802 804 809
751 752 754 756 758 759 761 765 768 772 774 777 778 784 786 788 791 797 795 796 808 813
748 747 749 751 751 754 757 762 764 769 772 775 779 783 786 791 793 795 797 801 807 811
750 752 753 754 757 756 756 761 763 767 771 774 778 782 786 792 792 791 796 803 808 808
747 751 753 756 759 760 761 763 765 769 774 778 779 782 784 788 792 795 799 802 805 807
745 747 750 756 757 758 761 763 766 769 769 776 779 784 785 789 795 794 798 800 804 808
744 746 748 751 755 757 762 764 764 762 771 771 779 782 786 788 791 790 796 798 804 809
744 744 747 750 751 756 759 760 762 767 766 768 775 779 786 786 787 789 792 797 801 805
737 739 743 745 745 750 756 758 758 761 763 767 770 777 783 784 785 786 787 792 798 801
736 736 736 737 737 741 748 752 750 753 752 763 767 775 778 780 785 786 786 790 795 799
733 733 733 730 731 732 738 740 742 744 752 758 763 768 775 778 781 782 785 789 793 796
730 724 723 725 726 727 729 733 738 741 742 749 755 763 770 774 777 778 781 786 793 795
720 718 719 717 717 720 721 721 720 728 734 739 749 757 762 767 769 773 775 780 785 792
Wind_Speed
18 18 20 23 24 24 23 22 20 22 23 23 21 22 22 20 21 21 22 27 22 19
13 15 17 19 19 22 21 23 24 25 25 23 22 22 23 24 25 23 25 22 21 22
11 12 14 16 19 20 21 25 27 24 24 22 22 21 19 20 20 22 22 23 21 20
13 15 16 20 22 23 26 30 28 27 25 21 20 19 18 20 23 20 21 20 20 19
11 12 14 17 19 23 26 27 29 26 23 20 19 19 19 22 20 19 19 21 20 18
15 15 16 18 20 22 25 27 24 22 20 19 20 20 19 17 18 20 19 17 15 14
19 19 18 20 23 24 26 24 22 22 23 22 21 21 20 20 20 19 16 15 14 15
20 20 21 22 24 24 23 24 24 25 24 23 23 23 24 23 23 21 20 18 16 14
20 22 25 25 25 25 26 27 25 26 26 25 26 26 26 26 25 25 23 21 17 15
26 28 28 27 27 27 30 30 29 31 28 29 31 30 29 26 28 28 25 23 21 18
20 26 31 34 34 34 38 37 37 36 33 34 32 32 31 29 29 28 25 24 21 17
19 30 30 33 38 36 36 37 39 37 37 37 34 34 35 33 34 30 26 22 19 17
21 27 35 37 41 43 41 40 38 39 41 40 39 38 37 40 36 31 27 22 19 16
23 24 33 40 36 38 43 39 46 43 44 42 41 39 44 44 38 37 32 29 28 23
Wind_Direction
231 228 224 220 214 209 203 197 183 171 171 169 171 166 161 161 163 172 174 175 183 177
232 232 227 227 224 211 205 189 182 181 180 174 174 175 175 175 181 182 178 177 175 169
223 223 223 220 213 207 200 190 186 190 183 179 177 184 185 186 181 175 162 163 169 168
215 214 213 211 206 201 193 192 188 185 182 182 187 194 197 196 188 182 176 174 177 175
214 215 212 209 206 197 189 188 184 185 189 193 192 189 190 188 182 177 179 183 186 181
201 206 206 208 204 198 193 185 185 191 194 194 190 189 188 190 187 184 185 184 186 189
204 204 207 210 204 199 192 191 194 196 191 192 191 190 185 188 190 180 183 180 184 183
213 209 207 203 202 196 203 205 200 191 196 189 196 195 195 190 184 173 169 166 174 182
215 208 209 206 202 204 207 204 201 200 195 192 199 198 197 186 178 176 172 170 173 182
216 204 205 203 199 204 205 204 202 204 203 202 201 197 196 190 187 184 179 178 180 177
226 208 200 204 207 206 212 210 205 205 201 204 202 200 196 195 194 187 180 181 185 190
238 213 209 205 209 203 202 205 207 206 207 206 204 199 198 194 190 185 183 183 188 190
246 234 220 213 216 215 208 212 217 213 209 206 202 199 201 195 190 184 181 183 189 191
248 240 235 227 216 218 213 212 207 207 207 205 203 198 197 196 195 192 185 186 188 194